Location: Cuzcurrita-R�o Tir�n
(42.5415°N, 2.9642°W)
Time: 01:01:37
(UTC+00:00)

Lacrosse 5 - Pass Details

Date: 17 January 2021
Orbit: 715 x 724 km, 57.0° (Epoch: 07 March)

Event Time Altitude Azimuth Distance (km) Brightness Sun altitude
Rises 20:12:51 0° 313° (NW) 3,122 5.8 -33.9°
Reaches altitude 10° 20:15:14 10° 314° (NW) 2,199 4.9 -34.4°
Enters shadow 20:17:04 23° 314° (NW) 1,510 3.9 -34.7°
